| time (UTC) | temp C | wind direction | speed KPH | gust KPH | rain 1hr cm | rain 24hr cm | rain mn cm | humidity % | barometer mb |
| 20260510102432 | 20 | 267 | 3.2 | 6.4 | 0.00 | 0.00 | 0.00 | 67 | 1009.2 |
| 20260510101933 | 20 | 269 | 1.6 | 6.4 | 0.00 | 0.00 | 0.00 | 67 | 1009.2 |
| 20260510101433 | 20 | 291 | 4.8 | 8.0 | 0.00 | 0.00 | 0.00 | 67 | 1009.2 |
| 20260510100932 | 20 | 292 | 4.8 | 8.0 | 0.00 | 0.00 | 0.00 | 68 | 1009.2 |
| 20260510100433 | 20 | 233 | 4.8 | 11.3 | 0.00 | 0.00 | 0.00 | 67 | 1009.3 |
| 20260510095931 | 20 | 269 | 3.2 | 4.8 | 0.00 | 0.00 | 0.00 | 69 | 1009.4 |
| 20260510095431 | 20 | 293 | 1.6 | 6.4 | 0.00 | 0.00 | 0.00 | 67 | 1009.5 |
| 20260510094931 | 20 | 273 | 3.2 | 8.0 | 0.00 | 0.00 | 0.00 | 68 | 1009.5 |
| 20260510094431 | 20 | 287 | 3.2 | 8.0 | 0.00 | 0.00 | 0.00 | 68 | 1009.5 |
| 20260510093932 | 20 | 313 | 6.4 | 9.7 | 0.00 | 0.00 | 0.00 | 67 | 1009.5 |
| 20260510093431 | 20 | 301 | 1.6 | 6.4 | 0.00 | 0.00 | 0.00 | 70 | 1009.6 |
| 20260510092932 | 20 | 338 | 4.8 | 8.0 | 0.00 | 0.00 | 0.00 | 72 | 1009.6 |
| 20260510092431 | 19 | 281 | 3.2 | 8.0 | 0.00 | 0.00 | 0.00 | 73 | 1009.6 |
| 20260510091931 | 19 | 261 | 1.6 | 8.0 | 0.00 | 0.00 | 0.00 | 74 | 1009.6 |
| 20260510091432 | 18 | 351 | 4.8 | 8.0 | 0.00 | 0.00 | 0.00 | 72 | 1009.7 |
| 20260510090932 | 18 | 28 | 3.2 | 6.4 | 0.00 | 0.00 | 0.00 | 71 | 1009.7 |
| 20260510090432 | 18 | 290 | 1.6 | 4.8 | 0.00 | 0.00 | 0.00 | 74 | 1009.7 |
| 20260510085932 | 18 | 281 | 4.8 | 6.4 | 0.00 | 0.00 | 0.00 | 75 | 1009.7 |
| 20260510085432 | 18 | 313 | 3.2 | 8.0 | 0.00 | 0.00 | 0.00 | 73 | 1009.8 |
| 20260510084932 | 18 | 276 | 3.2 | 8.0 | 0.00 | 0.00 | 0.00 | 73 | 1009.9 |
| 20260510084431 | 18 | 348 | 1.6 | 8.0 | 0.00 | 0.00 | 0.00 | 75 | 1009.9 |
| 20260510083932 | 17 | 18 | 3.2 | 6.4 | 0.00 | 0.00 | 0.00 | 74 | 1009.9 |
| 20260510083432 | 17 | 337 | 1.6 | 4.8 | 0.00 | 0.00 | 0.00 | 78 | 1010.0 |
| 20260510082932 | 17 | 294 | 0.0 | 4.8 | 0.00 | 0.00 | 0.00 | 78 | 1010.0 |
| 20260510082431 | 17 | 113 | 1.6 | 3.2 | 0.00 | 0.00 | 0.00 | 79 | 1010.1 |
| 20260510081931 | 17 | 12 | 1.6 | 4.8 | 0.00 | 0.00 | 0.00 | 78 | 1010.1 |
| 20260510081432 | 16 | 58 | 1.6 | 3.2 | 0.00 | 0.00 | 0.00 | 78 | 1010.2 |
| 20260510080932 | 16 | 336 | 1.6 | 4.8 | 0.00 | 0.00 | 0.00 | 80 | 1010.2 |
| 20260510080432 | 16 | 355 | 3.2 | 6.4 | 0.00 | 0.00 | 0.00 | 81 | 1010.2 |
| 20260510075932 | 16 | 247 | 0.0 | 4.8 | 0.00 | 0.00 | 0.00 | 80 | 1010.2 |
| 20260510075431 | 16 | 344 | 3.2 | 4.8 | 0.00 | 0.00 | 0.00 | 81 | 1010.2 |
| 20260510074932 | 16 | 289 | 3.2 | 6.4 | 0.00 | 0.00 | 0.00 | 81 | 1010.2 |
| 20260510074431 | 15 | 267 | 1.6 | 3.2 | 0.00 | 0.00 | 0.00 | 82 | 1010.3 |
| 20260510073932 | 15 | 360 | 1.6 | 6.4 | 0.00 | 0.00 | 0.00 | 83 | 1010.3 |
| 20260510073432 | 15 | 329 | 1.6 | 4.8 | 0.00 | 0.00 | 0.00 | 84 | 1010.3 |
| 20260510072933 | 14 | 125 | 0.0 | 1.6 | 0.00 | 0.00 | 0.00 | 85 | 1010.3 |
| 20260510072431 | 14 | 221 | 1.6 | 1.6 | 0.00 | 0.00 | 0.00 | 86 | 1010.3 |
| 20260510071933 | 14 | 141 | 0.0 | 3.2 | 0.00 | 0.00 | 0.00 | 85 | 1010.3 |
| 20260510071433 | 13 | 111 | 1.6 | 3.2 | 0.00 | 0.00 | 0.00 | 86 | 1010.4 |
| 20260510070933 | 13 | 242 | 1.6 | 4.8 | 0.00 | 0.00 | 0.00 | 86 | 1010.5 |
| 20260510070432 | 13 | 331 | 1.6 | 1.6 | 0.00 | 0.00 | 0.00 | 87 | 1010.6 |
| 20260510065931 | 13 | 355 | 1.6 | 4.8 | 0.00 | 0.00 | 0.00 | 87 | 1010.6 |
| 20260510065433 | 13 | 257 | 0.0 | 3.2 | 0.00 | 0.00 | 0.00 | 86 | 1010.7 |
| 20260510064931 | 13 | 273 | 0.0 | 3.2 | 0.00 | 0.00 | 0.00 | 87 | 1010.6 |
| 20260510064432 | 13 | 318 | 3.2 | 6.4 | 0.00 | 0.00 | 0.00 | 88 | 1010.6 |
| 20260510063931 | 13 | 329 | 1.6 | 3.2 | 0.00 | 0.00 | 0.00 | 87 | 1010.6 |
| 20260510063431 | 13 | 312 | 1.6 | 6.4 | 0.00 | 0.00 | 0.00 | 88 | 1010.6 |
| 20260510062931 | 13 | 323 | 3.2 | 6.4 | 0.00 | 0.00 | 0.00 | 88 | 1010.6 |
| 20260510062431 | 12 | 266 | 3.2 | 6.4 | 0.00 | 0.00 | 0.00 | 88 | 1010.5 |
| 20260510061931 | 12 | 342 | 3.2 | 6.4 | 0.00 | 0.00 | 0.00 | 89 | 1010.5 |
| 20260510061431 | 12 | 281 | 1.6 | 4.8 | 0.00 | 0.00 | 0.00 | 90 | 1010.5 |
| 20260510060932 | 12 | 277 | 1.6 | 4.8 | 0.00 | 0.00 | 0.00 | 90 | 1010.5 |
| 20260510060431 | 12 | 323 | 1.6 | 4.8 | 0.00 | 0.00 | 0.00 | 91 | 1010.5 |
| 20260510055932 | 12 | 195 | 0.0 | 1.6 | 0.00 | 0.00 | 0.00 | 91 | 1010.5 |
| 20260510055431 | 11 | 155 | 0.0 | 1.6 | 0.00 | 0.00 | 0.00 | 91 | 1010.5 |
| 20260510054931 | 11 | 157 | 1.6 | 1.6 | 0.00 | 0.00 | 0.00 | 91 | 1010.6 |
| 20260510054431 | 11 | 182 | 0.0 | 1.6 | 0.00 | 0.00 | 0.00 | 91 | 1010.6 |
| 20260510053932 | 11 | 107 | 0.0 | 0.0 | 0.00 | 0.00 | 0.00 | 91 | 1010.7 |
| 20260510053431 | 11 | 107 | 0.0 | 0.0 | 0.00 | 0.00 | 0.00 | 92 | 1010.7 |
| 20260510052932 | 11 | 131 | 0.0 | 0.0 | 0.00 | 0.00 | 0.00 | 92 | 1010.7 |
| 20260510052432 | 10 | 130 | 0.0 | 1.6 | 0.00 | 0.00 | 0.00 | 91 | 1010.8 |
| 20260510051932 | 10 | 157 | 0.0 | 3.2 | 0.00 | 0.00 | 0.00 | 91 | 1010.8 |
| 20260510051431 | 10 | 170 | 1.6 | 3.2 | 0.00 | 0.00 | 0.00 | 91 | 1010.9 |
| 20260510050932 | 10 | 128 | 0.0 | 3.2 | 0.00 | 0.00 | 0.00 | 91 | 1010.9 |
| 20260510050432 | 9 | 102 | 0.0 | 1.6 | 0.00 | 0.00 | 0.00 | 91 | 1010.8 |
| 20260510045931 | 9 | 5 | 0.0 | 3.2 | 0.00 | 0.00 | 0.00 | 91 | 1010.9 |
| 20260510045432 | 8 | 49 | 1.6 | 3.2 | 0.00 | 0.00 | 0.00 | 90 | 1010.9 |
| 20260510044932 | 9 | 20 | 0.0 | 1.6 | 0.00 | 0.00 | 0.00 | 90 | 1010.9 |
| 20260510044432 | 9 | 31 | 0.0 | 3.2 | 0.00 | 0.00 | 0.00 | 90 | 1010.8 |
| 20260510043931 | 9 | 112 | 0.0 | 3.2 | 0.00 | 0.00 | 0.00 | 90 | 1010.9 |
| 20260510043432 | 9 | 122 | 0.0 | 3.2 | 0.00 | 0.00 | 0.00 | 90 | 1011.0 |
| 20260510042931 | 9 | 167 | 0.0 | 0.0 | 0.00 | 0.00 | 0.00 | 90 | 1011.0 |
| 20260510042432 | 9 | 167 | 0.0 | 0.0 | 0.00 | 0.00 | 0.00 | 90 | 1011.0 |
| 20260510041931 | 10 | 167 | 0.0 | 3.2 | 0.00 | 0.00 | 0.00 | 91 | 1011.0 |
| 20260510041432 | 9 | 151 | 1.6 | 3.2 | 0.00 | 0.00 | 0.00 | 90 | 1010.9 |
| 20260510040931 | 9 | 163 | 4.8 | 6.4 | 0.00 | 0.00 | 0.00 | 91 | 1010.9 |
| 20260510040431 | 9 | 168 | 3.2 | 4.8 | 0.00 | 0.00 | 0.00 | 90 | 1010.9 |
| 20260510035931 | 9 | 179 | 3.2 | 4.8 | 0.00 | 0.00 | 0.00 | 90 | 1010.9 |
| 20260510035432 | 8 | 137 | 0.0 | 3.2 | 0.00 | 0.00 | 0.00 | 89 | 1010.9 |
| 20260510034931 | 8 | 123 | 0.0 | 1.6 | 0.00 | 0.00 | 0.00 | 89 | 1011.0 |
| 20260510034431 | 9 | 123 | 0.0 | 1.6 | 0.00 | 0.00 | 0.00 | 90 | 1010.9 |
| 20260510033932 | 9 | 123 | 0.0 | 0.0 | 0.00 | 0.00 | 0.00 | 90 | 1010.9 |
| 20260510033433 | 9 | 123 | 0.0 | 0.0 | 0.00 | 0.00 | 0.00 | 90 | 1010.9 |
| 20260510032932 | 9 | 123 | 0.0 | 1.6 | 0.00 | 0.00 | 0.00 | 90 | 1010.9 |
| 20260510032433 | 9 | 123 | 0.0 | 3.2 | 0.00 | 0.00 | 0.00 | 90 | 1011.0 |
| 20260510031933 | 9 | 84 | 0.0 | 4.8 | 0.00 | 0.00 | 0.00 | 89 | 1011.0 |
| 20260510031203 | 9 | 88 | 1.6 | 4.8 | 0.00 | 0.00 | 0.00 | 89 | 1011.0 |
| 20260510030702 | 9 | 139 | 1.6 | 4.8 | 0.00 | 0.00 | 0.00 | 89 | 1011.1 |
| 20260510030201 | 9 | 230 | 1.6 | 4.8 | 0.00 | 0.00 | 0.00 | 89 | 1011.0 |
| 20260510025703 | 9 | 142 | 0.0 | 0.0 | 0.00 | 0.00 | 0.00 | 89 | 1010.9 |
| 20260510025202 | 9 | 142 | 0.0 | 1.6 | 0.00 | 0.00 | 0.00 | 89 | 1011.0 |
| 20260510024702 | 9 | 142 | 0.0 | 3.2 | 0.00 | 0.00 | 0.00 | 89 | 1011.1 |
| 20260510024202 | 9 | 129 | 0.0 | 1.6 | 0.00 | 0.00 | 0.00 | 89 | 1011.1 |
| 20260510023702 | 9 | 129 | 1.6 | 3.2 | 0.00 | 0.00 | 0.00 | 89 | 1011.2 |
| 20260510023201 | 9 | 142 | 0.0 | 3.2 | 0.00 | 0.00 | 0.00 | 89 | 1011.2 |
| 20260510022702 | 9 | 170 | 0.0 | 0.0 | 0.00 | 0.00 | 0.00 | 89 | 1011.4 |
| 20260510022202 | 9 | 170 | 0.0 | 1.6 | 0.00 | 0.00 | 0.00 | 89 | 1011.3 |
| 20260510021702 | 9 | 185 | 1.6 | 3.2 | 0.00 | 0.00 | 0.00 | 89 | 1011.3 |
| 20260510021202 | 9 | 186 | 1.6 | 3.2 | 0.00 | 0.00 | 0.00 | 88 | 1011.3 |
| 20260510020702 | 9 | 144 | 0.0 | 1.6 | 0.00 | 0.00 | 0.00 | 89 | 1011.2 |
| 20260510020202 | 10 | 33 | 0.0 | 1.6 | 0.00 | 0.00 | 0.00 | 89 | 1011.2 |
| 20260510015701 | 10 | 28 | 0.0 | 1.6 | 0.00 | 0.00 | 0.00 | 89 | 1011.2 |
| 20260510015202 | 10 | 80 | 0.0 | 1.6 | 0.00 | 0.00 | 0.00 | 89 | 1011.1 |
| 20260510014702 | 10 | 80 | 0.0 | 1.6 | 0.00 | 0.00 | 0.00 | 89 | 1011.2 |
| 20260510014201 | 10 | 127 | 0.0 | 0.0 | 0.00 | 0.00 | 0.00 | 88 | 1011.2 |
| 20260510013702 | 9 | 126 | 0.0 | 3.2 | 0.00 | 0.00 | 0.00 | 88 | 1011.2 |
| 20260510013203 | 10 | 117 | 0.0 | 0.0 | 0.00 | 0.00 | 0.00 | 88 | 1011.2 |
| 20260510012703 | 10 | 117 | 0.0 | 1.6 | 0.00 | 0.00 | 0.00 | 88 | 1011.2 |
| 20260510012202 | 10 | 148 | 0.0 | 0.0 | 0.00 | 0.00 | 0.00 | 88 | 1011.2 |
| 20260510011702 | 10 | 148 | 0.0 | 1.6 | 0.00 | 0.00 | 0.00 | 88 | 1011.3 |
| 20260510011201 | 10 | 148 | 0.0 | 1.6 | 0.00 | 0.00 | 0.00 | 88 | 1011.4 |
| 20260510010701 | 10 | 148 | 1.6 | 3.2 | 0.00 | 0.00 | 0.00 | 88 | 1011.5 |
| 20260510010202 | 10 | 158 | 0.0 | 0.0 | 0.00 | 0.00 | 0.00 | 88 | 1011.5 |
| 20260510005702 | 10 | 159 | 0.0 | 0.0 | 0.00 | 0.00 | 0.00 | 88 | 1011.6 |
| 20260510005202 | 10 | 158 | 0.0 | 1.6 | 0.00 | 0.00 | 0.00 | 87 | 1011.6 |
| 20260510004702 | 10 | 159 | 0.0 | 1.6 | 0.00 | 0.00 | 0.00 | 88 | 1011.7 |
| 20260510004202 | 10 | 159 | 0.0 | 1.6 | 0.00 | 0.00 | 0.00 | 88 | 1011.8 |
| 20260510003702 | 10 | 160 | 0.0 | 1.6 | 0.00 | 0.00 | 0.00 | 88 | 1011.9 |
| 20260510003202 | 10 | 159 | 1.6 | 3.2 | 0.00 | 0.00 | 0.00 | 87 | 1012.0 |
| 20260510002701 | 10 | 136 | 0.0 | 0.0 | 0.00 | 0.00 | 0.00 | 87 | 1012.0 |
| 20260510002202 | 10 | 136 | 0.0 | 1.6 | 0.00 | 0.00 | 0.00 | 87 | 1012.0 |
| 20260510001703 | 10 | 109 | 0.0 | 0.0 | 0.00 | 0.00 | 0.00 | 87 | 1012.1 |
| 20260510001202 | 10 | 109 | 0.0 | 1.6 | 0.00 | 0.00 | 0.00 | 87 | 1012.1 |
| 20260510000702 | 10 | 129 | 0.0 | 0.0 | 0.00 | 0.00 | 0.00 | 87 | 1012.2 |
| 20260510000204 | 10 | 129 | 0.0 | 0.0 | 0.00 | 0.00 | 0.00 | 87 | 1012.2 |
| 20260509235701 | 10 | 129 | 0.0 | 0.0 | 0.00 | 0.00 | 0.00 | 87 | 1012.3 |
| 20260509235203 | 10 | 129 | 0.0 | 3.2 | 0.00 | 0.00 | 0.00 | 87 | 1012.4 |
| 20260509234703 | 11 | 129 | 0.0 | 1.6 | 0.00 | 0.00 | 0.00 | 86 | 1012.4 |
| 20260509234203 | 11 | 129 | 0.0 | 1.6 | 0.00 | 0.00 | 0.00 | 87 | 1012.4 |
| 20260509233703 | 11 | 129 | 0.0 | 0.0 | 0.00 | 0.00 | 0.00 | 86 | 1012.5 |
| 20260509233202 | 11 | 129 | 0.0 | 1.6 | 0.00 | 0.00 | 0.00 | 86 | 1012.5 |
| 20260509232702 | 11 | 129 | 0.0 | 1.6 | 0.00 | 0.00 | 0.00 | 86 | 1012.5 |
| 20260509232202 | 11 | 129 | 1.6 | 1.6 | 0.00 | 0.00 | 0.00 | 86 | 1012.5 |
| 20260509231701 | 11 | 129 | 0.0 | 1.6 | 0.00 | 0.00 | 0.00 | 86 | 1012.5 |
| 20260509231203 | 11 | 129 | 0.0 | 0.0 | 0.00 | 0.00 | 0.00 | 86 | 1012.6 |
| 20260509230702 | 11 | 129 | 0.0 | 1.6 | 0.00 | 0.00 | 0.00 | 86 | 1012.6 |
| 20260509230202 | 11 | 130 | 0.0 | 1.6 | 0.00 | 0.00 | 0.00 | 86 | 1012.7 |
| 20260509225702 | 11 | 130 | 1.6 | 3.2 | 0.00 | 0.00 | 0.00 | 86 | 1012.7 |
| 20260509225201 | 11 | 360 | 0.0 | 1.6 | 0.00 | 0.00 | 0.00 | 86 | 1012.6 |
| 20260509224701 | 11 | 17 | 0.0 | 3.2 | 0.00 | 0.00 | 0.00 | 86 | 1012.7 |
| 20260509224202 | 11 | 96 | 0.0 | 3.2 | 0.00 | 0.00 | 0.00 | 86 | 1012.7 |
| 20260509223701 | 11 | 79 | 0.0 | 0.0 | 0.00 | 0.00 | 0.00 | 85 | 1012.6 |
| 20260509223202 | 11 | 78 | 0.0 | 1.6 | 0.00 | 0.00 | 0.00 | 85 | 1012.6 |
| 20260509222702 | 11 | 78 | 0.0 | 1.6 | 0.00 | 0.00 | 0.00 | 85 | 1012.6 |
| 20260509222202 | 11 | 78 | 0.0 | 3.2 | 0.00 | 0.00 | 0.00 | 85 | 1012.7 |
| 20260509221701 | 12 | 67 | 0.0 | 1.6 | 0.00 | 0.00 | 0.00 | 85 | 1012.7 |
| 20260509221202 | 12 | 66 | 1.6 | 3.2 | 0.00 | 0.00 | 0.00 | 84 | 1012.7 |
| 20260509220701 | 12 | 155 | 1.6 | 1.6 | 0.00 | 0.00 | 0.00 | 84 | 1012.8 |
| 20260509220203 | 12 | 163 | 0.0 | 1.6 | 0.00 | 0.00 | 0.00 | 84 | 1012.9 |
| 20260509215702 | 12 | 163 | 0.0 | 1.6 | 0.00 | 0.00 | 0.00 | 84 | 1012.8 |
| 20260509215201 | 12 | 180 | 0.0 | 1.6 | 0.00 | 0.00 | 0.00 | 84 | 1012.8 |
| 20260509214702 | 12 | 155 | 0.0 | 1.6 | 0.00 | 0.00 | 0.00 | 84 | 1012.8 |
| 20260509214201 | 12 | 155 | 1.6 | 3.2 | 0.00 | 0.00 | 0.00 | 84 | 1012.8 |
| 20260509213703 | 12 | 146 | 3.2 | 4.8 | 0.00 | 0.00 | 0.00 | 83 | 1012.7 |
| 20260509213203 | 12 | 123 | 0.0 | 1.6 | 0.00 | 0.00 | 0.00 | 83 | 1012.6 |
| 20260509212703 | 12 | 122 | 1.6 | 3.2 | 0.00 | 0.00 | 0.00 | 82 | 1012.6 |
| 20260509212202 | 13 | 159 | 0.0 | 0.0 | 0.00 | 0.00 | 0.00 | 82 | 1012.6 |
| 20260509211701 | 13 | 159 | 0.0 | 1.6 | 0.00 | 0.00 | 0.00 | 82 | 1012.5 |
| 20260509211203 | 13 | 159 | 0.0 | 1.6 | 0.00 | 0.00 | 0.00 | 82 | 1012.6 |
| 20260509210702 | 13 | 159 | 0.0 | 0.0 | 0.00 | 0.00 | 0.00 | 82 | 1012.6 |
| 20260509210201 | 13 | 159 | 0.0 | 1.6 | 0.00 | 0.00 | 0.00 | 82 | 1012.7 |
| 20260509205701 | 13 | 173 | 0.0 | 3.2 | 0.00 | 0.00 | 0.00 | 82 | 1012.7 |
| 20260509205201 | 13 | 184 | 0.0 | 1.6 | 0.00 | 0.00 | 0.00 | 81 | 1012.6 |
| 20260509204701 | 13 | 173 | 1.6 | 3.2 | 0.00 | 0.00 | 0.00 | 81 | 1012.6 |
| 20260509204202 | 13 | 161 | 1.6 | 3.2 | 0.00 | 0.00 | 0.00 | 80 | 1012.6 |
| 20260509203701 | 14 | 146 | 0.0 | 1.6 | 0.00 | 0.00 | 0.00 | 79 | 1012.6 |
| 20260509203201 | 14 | 146 | 0.0 | 1.6 | 0.00 | 0.00 | 0.00 | 79 | 1012.6 |
| 20260509202702 | 14 | 146 | 1.6 | 1.6 | 0.00 | 0.00 | 0.00 | 79 | 1012.6 |
| 20260509202201 | 15 | 143 | 0.0 | 1.6 | 0.00 | 0.00 | 0.00 | 78 | 1012.6 |
| 20260509201702 | 15 | 143 | 1.6 | 3.2 | 0.00 | 0.00 | 0.00 | 78 | 1012.7 |
| 20260509201201 | 15 | 141 | 0.0 | 3.2 | 0.00 | 0.00 | 0.00 | 77 | 1012.7 |
| 20260509200701 | 15 | 135 | 0.0 | 3.2 | 0.00 | 0.00 | 0.00 | 76 | 1012.6 |
| 20260509200202 | 15 | 133 | 0.0 | 3.2 | 0.00 | 0.00 | 0.00 | 75 | 1012.6 |
| 20260509195702 | 15 | 129 | 0.0 | 0.0 | 0.00 | 0.00 | 0.00 | 74 | 1012.7 |
| 20260509195202 | 16 | 129 | 0.0 | 0.0 | 0.00 | 0.00 | 0.00 | 73 | 1012.7 |
| 20260509194702 | 16 | 129 | 1.6 | 3.2 | 0.00 | 0.00 | 0.00 | 73 | 1012.7 |
| 20260509194202 | 16 | 128 | 1.6 | 3.2 | 0.00 | 0.00 | 0.00 | 71 | 1012.6 |
| 20260509193703 | 16 | 127 | 0.0 | 3.2 | 0.00 | 0.00 | 0.00 | 70 | 1012.7 |
| 20260509193202 | 17 | 117 | 0.0 | 3.2 | 0.00 | 0.00 | 0.00 | 70 | 1012.6 |
| 20260509192703 | 17 | 96 | 0.0 | 1.6 | 0.00 | 0.00 | 0.00 | 69 | 1012.5 |
| 20260509192202 | 17 | 89 | 0.0 | 3.2 | 0.00 | 0.00 | 0.00 | 68 | 1012.5 |
| 20260509191701 | 17 | 89 | 1.6 | 3.2 | 0.00 | 0.00 | 0.00 | 67 | 1012.6 |
| 20260509191201 | 18 | 90 | 1.6 | 4.8 | 0.00 | 0.00 | 0.00 | 66 | 1012.5 |
| 20260509190701 | 18 | 65 | 0.0 | 3.2 | 0.00 | 0.00 | 0.00 | 65 | 1012.5 |
| 20260509190201 | 18 | 72 | 3.2 | 4.8 | 0.00 | 0.00 | 0.00 | 65 | 1012.5 |
| 20260509185702 | 18 | 83 | 3.2 | 4.8 | 0.00 | 0.00 | 0.00 | 64 | 1012.5 |
| 20260509185201 | 19 | 84 | 3.2 | 3.2 | 0.00 | 0.00 | 0.00 | 63 | 1012.5 |
| 20260509184701 | 19 | 84 | 1.6 | 3.2 | 0.00 | 0.00 | 0.00 | 62 | 1012.4 |
| 20260509184202 | 19 | 78 | 1.6 | 3.2 | 0.00 | 0.00 | 0.00 | 62 | 1012.4 |
| 20260509183702 | 20 | 71 | 3.2 | 4.8 | 0.00 | 0.00 | 0.00 | 61 | 1012.4 |
| 20260509183201 | 20 | 103 | 3.2 | 3.2 | 0.00 | 0.00 | 0.00 | 60 | 1012.3 |
| 20260509182701 | 20 | 74 | 3.2 | 4.8 | 0.00 | 0.00 | 0.00 | 60 | 1012.3 |
| 20260509182201 | 20 | 71 | 1.6 | 3.2 | 0.00 | 0.00 | 0.00 | 59 | 1012.3 |
| 20260509181701 | 21 | 75 | 1.6 | 3.2 | 0.00 | 0.00 | 0.00 | 60 | 1012.2 |
| 20260509181201 | 21 | 338 | 0.0 | 1.6 | 0.00 | 0.00 | 0.00 | 58 | 1012.2 |
| 20260509180701 | 21 | 325 | 1.6 | 3.2 | 0.00 | 0.00 | 0.00 | 57 | 1012.2 |
| 20260509180203 | 21 | 299 | 0.0 | 1.6 | 0.00 | 0.00 | 0.00 | 56 | 1012.2 |
| 20260509175702 | 21 | 332 | 1.6 | 4.8 | 0.00 | 0.00 | 0.00 | 55 | 1012.1 |
| 20260509175203 | 21 | 340 | 1.6 | 4.8 | 0.00 | 0.00 | 0.00 | 56 | 1012.1 |
| 20260509174702 | 21 | 311 | 1.6 | 3.2 | 0.00 | 0.00 | 0.00 | 54 | 1012.2 |
| 20260509174202 | 22 | 105 | 3.2 | 6.4 | 0.00 | 0.00 | 0.00 | 55 | 1012.2 |
| 20260509173701 | 22 | 326 | 1.6 | 6.4 | 0.00 | 0.00 | 0.00 | 54 | 1012.2 |
| 20260509173202 | 22 | 323 | 3.2 | 6.4 | 0.00 | 0.00 | 0.00 | 54 | 1012.2 |
| 20260509172702 | 22 | 17 | 1.6 | 11.3 | 0.00 | 0.00 | 0.00 | 54 | 1012.3 |
| 20260509172202 | 22 | 288 | 3.2 | 11.3 | 0.00 | 0.00 | 0.00 | 56 | 1012.3 |
| 20260509171702 | 22 | 331 | 6.4 | 9.7 | 0.00 | 0.00 | 0.00 | 56 | 1012.3 |
| 20260509171201 | 22 | 325 | 3.2 | 8.0 | 0.00 | 0.00 | 0.00 | 56 | 1012.2 |
| 20260509170702 | 22 | 290 | 4.8 | 11.3 | 0.00 | 0.00 | 0.00 | 56 | 1012.3 |
| 20260509170201 | 22 | 300 | 4.8 | 11.3 | 0.00 | 0.00 | 0.00 | 55 | 1012.4 |
| 20260509165702 | 23 | 321 | 3.2 | 9.7 | 0.00 | 0.00 | 0.00 | 53 | 1012.4 |
| 20260509165202 | 23 | 314 | 4.8 | 9.7 | 0.00 | 0.00 | 0.00 | 51 | 1012.4 |
| 20260509164702 | 23 | 279 | 3.2 | 8.0 | 0.00 | 0.00 | 0.00 | 50 | 1012.5 |
| 20260509164202 | 23 | 308 | 3.2 | 8.0 | 0.00 | 0.00 | 0.00 | 50 | 1012.5 |
| 20260509163702 | 23 | 329 | 3.2 | 6.4 | 0.00 | 0.00 | 0.00 | 51 | 1012.5 |
| 20260509163202 | 23 | 40 | 4.8 | 11.3 | 0.00 | 0.00 | 0.00 | 49 | 1012.5 |
| 20260509162701 | 23 | 85 | 3.2 | 9.7 | 0.00 | 0.00 | 0.00 | 48 | 1012.6 |
| 20260509162202 | 23 | 13 | 3.2 | 11.3 | 0.00 | 0.00 | 0.00 | 46 | 1012.5 |
| 20260509161701 | 24 | 338 | 3.2 | 9.7 | 0.00 | 0.00 | 0.00 | 45 | 1012.5 |
| 20260509161203 | 24 | 324 | 1.6 | 12.9 | 0.00 | 0.00 | 0.00 | 45 | 1012.5 |
| 20260509160702 | 24 | 266 | 6.4 | 12.9 | 0.00 | 0.00 | 0.00 | 47 | 1012.6 |
| 20260509160201 | 24 | 5 | 4.8 | 17.7 | 0.00 | 0.00 | 0.00 | 45 | 1012.6 |
| 20260509155701 | 23 | 316 | 3.2 | 16.1 | 0.00 | 0.00 | 0.00 | 48 | 1012.6 |
| 20260509155201 | 24 | 251 | 4.8 | 12.9 | 0.00 | 0.00 | 0.00 | 47 | 1012.7 |
| 20260509154701 | 24 | 21 | 1.6 | 11.3 | 0.00 | 0.00 | 0.00 | 46 | 1012.8 |
| 20260509154201 | 24 | 350 | 8.0 | 14.5 | 0.00 | 0.00 | 0.00 | 43 | 1012.9 |
| 20260509153702 | 25 | 225 | 3.2 | 9.7 | 0.00 | 0.00 | 0.00 | 43 | 1012.9 |
| 20260509153201 | 25 | 336 | 3.2 | 9.7 | 0.00 | 0.00 | 0.00 | 44 | 1013.1 |
| 20260509152702 | 25 | 317 | 6.4 | 9.7 | 0.00 | 0.00 | 0.00 | 42 | 1013.0 |
| 20260509152202 | 25 | 307 | 8.0 | 17.7 | 0.00 | 0.00 | 0.00 | 42 | 1013.0 |
| 20260509151701 | 25 | 338 | 1.6 | 9.7 | 0.00 | 0.00 | 0.00 | 44 | 1013.0 |
| 20260509151201 | 25 | 38 | 3.2 | 12.9 | 0.00 | 0.00 | 0.00 | 46 | 1013.1 |
| 20260509150701 | 25 | 346 | 4.8 | 14.5 | 0.00 | 0.00 | 0.00 | 42 | 1013.3 |
| 20260509150203 | 25 | 345 | 11.3 | 16.1 | 0.00 | 0.00 | 0.00 | 45 | 1013.4 |
| 20260509145702 | 25 | 5 | 6.4 | 12.9 | 0.00 | 0.00 | 0.00 | 45 | 1013.3 |
| 20260509145202 | 25 | 284 | 3.2 | 9.7 | 0.00 | 0.00 | 0.00 | 49 | 1013.3 |
| 20260509144702 | 25 | 345 | 4.8 | 11.3 | 0.00 | 0.00 | 0.00 | 48 | 1013.4 |
| 20260509144203 | 25 | 348 | 1.6 | 11.3 | 0.00 | 0.00 | 0.00 | 47 | 1013.4 |
| 20260509143702 | 25 | 5 | 3.2 | 8.0 | 0.00 | 0.00 | 0.00 | 47 | 1013.5 |
| 20260509143202 | 25 | 309 | 4.8 | 11.3 | 0.00 | 0.00 | 0.00 | 47 | 1013.6 |
| 20260509142701 | 25 | 333 | 4.8 | 14.5 | 0.00 | 0.00 | 0.00 | 46 | 1013.6 |
| 20260509142202 | 25 | 43 | 3.2 | 6.4 | 0.00 | 0.00 | 0.00 | 48 | 1013.7 |
| 20260509141701 | 25 | 212 | 3.2 | 11.3 | 0.00 | 0.00 | 0.00 | 49 | 1013.7 |
| 20260509141201 | 25 | 180 | 1.6 | 11.3 | 0.00 | 0.00 | 0.00 | 45 | 1013.7 |
| 20260509140701 | 25 | 332 | 1.6 | 6.4 | 0.00 | 0.00 | 0.00 | 48 | 1013.7 |
| 20260509140201 | 25 | 19 | 4.8 | 12.9 | 0.00 | 0.00 | 0.00 | 52 | 1013.8 |
| 20260509135701 | 25 | 256 | 1.6 | 6.4 | 0.00 | 0.00 | 0.00 | 45 | 1013.9 |
| 20260509135202 | 25 | 61 | 8.0 | 11.3 | 0.00 | 0.00 | 0.00 | 45 | 1014.0 |
| 20260509134702 | 24 | 338 | 4.8 | 11.3 | 0.00 | 0.00 | 0.00 | 51 | 1014.0 |
| 20260509134201 | 24 | 269 | 4.8 | 11.3 | 0.00 | 0.00 | 0.00 | 50 | 1014.1 |
| 20260509133702 | 24 | 60 | 4.8 | 14.5 | 0.00 | 0.00 | 0.00 | 52 | 1014.1 |
| 20260509133202 | 25 | 39 | 3.2 | 6.4 | 0.00 | 0.00 | 0.00 | 54 | 1014.2 |
| 20260509132703 | 24 | 277 | 3.2 | 8.0 | 0.00 | 0.00 | 0.00 | 53 | 1014.2 |
| 20260509132202 | 24 | 69 | 3.2 | 11.3 | 0.00 | 0.00 | 0.00 | 49 | 1014.4 |
| 20260509131702 | 23 | 360 | 3.2 | 12.9 | 0.00 | 0.00 | 0.00 | 51 | 1014.4 |
| 20260509131202 | 24 | 11 | 4.8 | 14.5 | 0.00 | 0.00 | 0.00 | 50 | 1014.5 |
| 20260509130701 | 24 | 5 | 3.2 | 9.7 | 0.00 | 0.00 | 0.00 | 54 | 1014.5 |
| 20260509130202 | 24 | 61 | 4.8 | 12.9 | 0.00 | 0.00 | 0.00 | 52 | 1014.5 |
| 20260509125702 | 24 | 301 | 3.2 | 12.9 | 0.00 | 0.00 | 0.00 | 53 | 1014.6 |
| 20260509125202 | 24 | 306 | 1.6 | 8.0 | 0.00 | 0.00 | 0.00 | 53 | 1014.6 |
| 20260509124702 | 24 | 330 | 1.6 | 11.3 | 0.00 | 0.00 | 0.00 | 52 | 1014.7 |
| 20260509124201 | 24 | 300 | 3.2 | 11.3 | 0.00 | 0.00 | 0.00 | 52 | 1014.7 |
| 20260509123702 | 23 | 328 | 4.8 | 11.3 | 0.00 | 0.00 | 0.00 | 54 | 1014.8 |
| 20260509123201 | 23 | 344 | 4.8 | 11.3 | 0.00 | 0.00 | 0.00 | 55 | 1014.8 |
| 20260509122702 | 23 | 116 | 1.6 | 11.3 | 0.00 | 0.00 | 0.00 | 51 | 1014.9 |
| 20260509122202 | 23 | 348 | 4.8 | 9.7 | 0.00 | 0.00 | 0.00 | 55 | 1015.0 |
| 20260509121702 | 23 | 332 | 4.8 | 8.0 | 0.00 | 0.00 | 0.00 | 55 | 1015.1 |
| 20260509121201 | 23 | 303 | 8.0 | 14.5 | 0.00 | 0.00 | 0.00 | 52 | 1015.2 |
| 20260509120702 | 23 | 341 | 3.2 | 9.7 | 0.00 | 0.00 | 0.00 | 58 | 1015.3 |
| 20260509120202 | 23 | 360 | 1.6 | 9.7 | 0.00 | 0.00 | 0.00 | 55 | 1015.3 |
| 20260509115703 | 22 | 329 | 4.8 | 9.7 | 0.00 | 0.00 | 0.00 | 56 | 1015.3 |
| 20260509115202 | 23 | 25 | 6.4 | 9.7 | 0.00 | 0.00 | 0.00 | 55 | 1015.4 |
| 20260509114702 | 22 | 355 | 6.4 | 11.3 | 0.00 | 0.00 | 0.00 | 58 | 1015.4 |
| 20260509114201 | 22 | 360 | 3.2 | 11.3 | 0.00 | 0.00 | 0.00 | 60 | 1015.5 |
| 20260509113702 | 22 | 23 | 1.6 | 11.3 | 0.00 | 0.00 | 0.00 | 59 | 1015.6 |
| 20260509113201 | 22 | 282 | 1.6 | 8.0 | 0.00 | 0.00 | 0.00 | 60 | 1015.6 |
| 20260509112701 | 22 | 273 | 1.6 | 6.4 | 0.00 | 0.00 | 0.00 | 57 | 1015.7 |
| 20260509112201 | 22 | 355 | 4.8 | 9.7 | 0.00 | 0.00 | 0.00 | 56 | 1015.7 |
| 20260509111701 | 22 | 360 | 1.6 | 11.3 | 0.00 | 0.00 | 0.00 | 58 | 1015.8 |
| 20260509111202 | 22 | 346 | 4.8 | 8.0 | 0.00 | 0.00 | 0.00 | 62 | 1015.9 |
| 20260509110701 | 22 | 26 | 4.8 | 12.9 | 0.00 | 0.00 | 0.00 | 62 | 1015.9 |
| 20260509110202 | 22 | 9 | 4.8 | 9.7 | 0.00 | 0.00 | 0.00 | 62 | 1016.0 |
| 20260509105701 | 22 | 277 | 1.6 | 6.4 | 0.00 | 0.00 | 0.00 | 60 | 1016.1 |
| 20260509105203 | 22 | 116 | 1.6 | 11.3 | 0.00 | 0.00 | 0.00 | 62 | 1016.1 |
| 20260509104702 | 22 | 46 | 3.2 | 8.0 | 0.00 | 0.00 | 0.00 | 59 | 1016.2 |
| 20260509104202 | 22 | 145 | 3.2 | 8.0 | 0.00 | 0.00 | 0.00 | 64 | 1016.3 |
| 20260509103702 | 21 | 9 | 3.2 | 8.0 | 0.00 | 0.00 | 0.00 | 64 | 1016.4 |
| 20260509103201 | 21 | 337 | 3.2 | 8.0 | 0.00 | 0.00 | 0.00 | 61 | 1016.4 |
| 20260509102702 | 21 | 333 | 4.8 | 12.9 | 0.00 | 0.00 | 0.00 | 65 | 1016.5 |